UAL2056 KLAX-KSFO

Flight info

Callsign UAL2056
Flight time 0h 56m
Altitude 38000
Route SUMMR2 STOKD SERFR SERFR4
Aircraft A320/M-SDE3FGHIRWY/LB1

Departure

Time 2026-05-05 02:58
Airport Los Angeles International Airport (KLAX)

Arrival

Time 2026-05-05 03:54
Airport San Francisco International Airport (KSFO)
Time Latitude Longitude Altitude Speed Heading
2026-05-05 02:22 33.94133 -118.39765 93 ft 0 kts 82°
2026-05-05 02:49 33.94131 -118.39782 93 ft 4 kts 82°
2026-05-05 02:49 33.94128 -118.39808 93 ft 4 kts 93°
2026-05-05 02:50 33.94136 -118.39830 93 ft 4 kts 161°
2026-05-05 02:50 33.94142 -118.39833 94 ft 4 kts 173°
2026-05-05 02:50 33.94115 -118.39829 96 ft 4 kts 173°
2026-05-05 02:50 33.94088 -118.39825 95 ft 3 kts 173°
2026-05-05 02:51 33.94067 -118.39826 93 ft 4 kts 189°
2026-05-05 02:51 33.94041 -118.39828 95 ft 4 kts 175°
2026-05-05 02:51 33.94036 -118.39827 93 ft 0 kts 173°
2026-05-05 02:53 33.94027 -118.39825 95 ft 2 kts 173°
2026-05-05 02:53 33.94019 -118.39824 94 ft 3 kts 173°
2026-05-05 02:53 33.93951 -118.39809 96 ft 13 kts 166°
2026-05-05 02:54 33.93907 -118.39730 95 ft 14 kts 86°
2026-05-05 02:54 33.93923 -118.39574 95 ft 21 kts 83°
2026-05-05 02:54 33.93941 -118.39387 95 ft 24 kts 83°
2026-05-05 02:54 33.93962 -118.39172 94 ft 27 kts 83°
2026-05-05 02:55 33.93984 -118.38954 96 ft 24 kts 84°
2026-05-05 02:55 33.94005 -118.38747 94 ft 26 kts 82°
2026-05-05 02:55 33.94029 -118.38525 96 ft 28 kts 83°
2026-05-05 02:55 33.94022 -118.38335 99 ft 17 kts 146°
2026-05-05 02:56 33.93948 -118.38365 100 ft 8 kts 259°
2026-05-05 02:56 33.93946 -118.38377 99 ft 1 kts 263°
2026-05-05 02:56 33.93946 -118.38380 99 ft 0 kts 263°
2026-05-05 02:57 33.93945 -118.38390 99 ft 3 kts 263°
2026-05-05 02:57 33.93925 -118.38584 99 ft 59 kts 263°
2026-05-05 02:57 33.93845 -118.39356 95 ft 123 kts 263°
2026-05-05 02:57 33.93730 -118.40541 304 ft 152 kts 264°
2026-05-05 02:58 33.93619 -118.41843 878 ft 161 kts 261°
2026-05-05 02:58 33.93483 -118.43170 1691 ft 159 kts 262°
2026-05-05 02:58 33.93341 -118.44535 2247 ft 174 kts 263°
2026-05-05 02:58 33.93184 -118.46085 2582 ft 199 kts 262°
2026-05-05 02:59 33.93020 -118.47844 3052 ft 224 kts 263°
2026-05-05 02:59 33.92850 -118.49805 3622 ft 244 kts 263°
2026-05-05 02:59 33.92675 -118.51883 4475 ft 254 kts 264°
2026-05-05 02:59 33.92498 -118.54022 5456 ft 258 kts 264°
2026-05-05 03:00 33.92320 -118.56177 6483 ft 261 kts 264°
2026-05-05 03:00 33.92141 -118.58363 7423 ft 263 kts 263°
2026-05-05 03:00 33.91959 -118.60569 8375 ft 267 kts 263°
2026-05-05 03:00 33.91781 -118.62811 9292 ft 271 kts 265°
2026-05-05 03:01 33.91768 -118.65099 10175 ft 276 kts 268°
2026-05-05 03:01 33.91761 -118.67507 10547 ft 299 kts 268°
2026-05-05 03:01 33.91750 -118.70061 11105 ft 310 kts 268°
2026-05-05 03:01 33.91738 -118.72677 11753 ft 316 kts 268°
2026-05-05 03:02 33.91726 -118.75331 11957 ft 317 kts 268°
2026-05-05 03:02 33.91715 -118.77983 11996 ft 317 kts 268°
2026-05-05 03:02 33.91705 -118.80633 11992 ft 317 kts 268°
2026-05-05 03:02 33.91697 -118.83287 11993 ft 317 kts 268°
2026-05-05 03:03 33.91733 -118.85969 12536 ft 322 kts 270°
2026-05-05 03:03 33.91812 -118.88667 13429 ft 323 kts 271°
2026-05-05 03:03 33.91905 -118.91372 14197 ft 325 kts 271°
2026-05-05 03:03 33.91999 -118.94110 14904 ft 328 kts 270°
2026-05-05 03:04 33.92088 -118.96865 15605 ft 331 kts 270°
2026-05-05 03:04 33.92242 -118.99646 16285 ft 336 kts 276°
2026-05-05 03:04 33.92841 -119.02392 16956 ft 343 kts 288°
2026-05-05 03:04 33.93941 -119.04974 17629 ft 351 kts 298°
2026-05-05 03:05 33.95252 -119.07477 18323 ft 355 kts 298°
2026-05-05 03:05 33.96568 -119.10011 18926 ft 358 kts 297°
2026-05-05 03:05 33.97888 -119.12571 19562 ft 361 kts 297°
2026-05-05 03:05 33.99214 -119.15149 20228 ft 363 kts 297°
2026-05-05 03:06 34.00652 -119.17669 20866 ft 370 kts 304°
2026-05-05 03:06 34.02458 -119.19866 21499 ft 379 kts 315°
2026-05-05 03:06 34.04608 -119.21758 22088 ft 385 kts 319°
2026-05-05 03:06 34.06801 -119.23622 22685 ft 387 kts 319°
2026-05-05 03:07 34.09015 -119.25510 23311 ft 390 kts 319°
2026-05-05 03:07 34.11237 -119.27415 23873 ft 393 kts 318°
2026-05-05 03:07 34.13473 -119.29339 24368 ft 396 kts 318°
2026-05-05 03:07 34.15725 -119.31286 24823 ft 400 kts 317°
2026-05-05 03:08 34.17996 -119.33253 25290 ft 403 kts 317°
2026-05-05 03:08 34.20285 -119.35236 25743 ft 407 kts 317°
2026-05-05 03:08 34.22597 -119.37237 26188 ft 411 kts 317°
2026-05-05 03:08 34.24929 -119.39252 26623 ft 414 kts 317°
2026-05-05 03:09 34.27287 -119.41286 27054 ft 418 kts 317°
2026-05-05 03:09 34.29661 -119.43331 27478 ft 421 kts 317°
2026-05-05 03:09 34.32056 -119.45396 27887 ft 424 kts 316°
2026-05-05 03:09 34.34463 -119.47478 28297 ft 427 kts 316°
2026-05-05 03:10 34.36885 -119.49579 28713 ft 430 kts 316°
2026-05-05 03:10 34.39325 -119.51700 29117 ft 433 kts 316°
2026-05-05 03:10 34.41672 -119.53973 29542 ft 429 kts 309°
2026-05-05 03:10 34.43774 -119.56528 29963 ft 429 kts 307°
2026-05-05 03:11 34.45874 -119.59119 30348 ft 432 kts 307°
2026-05-05 03:11 34.47989 -119.61718 30689 ft 435 kts 307°
2026-05-05 03:11 34.50125 -119.64338 31040 ft 438 kts 307°
2026-05-05 03:11 34.52273 -119.66975 31373 ft 441 kts 307°
2026-05-05 03:12 34.54434 -119.69633 31703 ft 444 kts 307°
2026-05-05 03:12 34.56605 -119.72304 32143 ft 444 kts 307°
2026-05-05 03:12 34.58767 -119.74968 32618 ft 443 kts 307°
2026-05-05 03:12 34.60927 -119.77632 33109 ft 443 kts 307°
2026-05-05 03:13 34.63086 -119.80298 33555 ft 442 kts 307°
2026-05-05 03:13 34.65240 -119.82959 34076 ft 442 kts 307°
2026-05-05 03:13 34.67395 -119.85627 34476 ft 441 kts 307°
2026-05-05 03:13 34.69541 -119.88288 34860 ft 441 kts 307°
2026-05-05 03:14 34.71690 -119.90955 35241 ft 441 kts 307°
2026-05-05 03:14 34.73833 -119.93619 35597 ft 441 kts 308°
2026-05-05 03:14 34.75980 -119.96288 35920 ft 441 kts 308°
2026-05-05 03:14 34.78126 -119.98959 36230 ft 442 kts 308°
2026-05-05 03:15 34.80273 -120.01632 36551 ft 442 kts 308°
2026-05-05 03:15 34.82422 -120.04305 36865 ft 442 kts 308°
2026-05-05 03:15 34.84568 -120.06978 37165 ft 442 kts 308°
2026-05-05 03:15 34.86717 -120.09658 37454 ft 442 kts 308°
2026-05-05 03:16 34.88868 -120.12342 37758 ft 442 kts 308°
2026-05-05 03:16 34.91016 -120.15024 38017 ft 443 kts 309°
2026-05-05 03:16 34.93167 -120.17713 38069 ft 443 kts 309°
2026-05-05 03:17 34.97472 -120.23091 38066 ft 443 kts 309°
2026-05-05 03:17 35.01735 -120.28434 38063 ft 443 kts 309°
2026-05-05 03:18 35.06032 -120.33832 38062 ft 443 kts 309°
2026-05-05 03:18 35.10395 -120.39257 38070 ft 454 kts 311°
2026-05-05 03:19 35.17516 -120.47201 38062 ft 467 kts 314°
2026-05-05 03:19 35.22364 -120.52490 38059 ft 467 kts 314°
2026-05-05 03:20 35.27165 -120.57850 38056 ft 467 kts 314°
2026-05-05 03:20 35.31936 -120.63261 38054 ft 467 kts 313°
2026-05-05 03:21 35.35903 -120.67760 38055 ft 468 kts 314°
2026-05-05 03:21 35.40696 -120.73165 38066 ft 468 kts 314°
2026-05-05 03:22 35.45490 -120.78578 38059 ft 469 kts 314°
2026-05-05 03:22 35.50458 -120.83778 38069 ft 471 kts 320°
2026-05-05 03:23 35.55695 -120.88631 38070 ft 471 kts 320°
2026-05-05 03:23 35.60934 -120.93486 38077 ft 472 kts 320°
2026-05-05 03:24 35.66153 -120.98338 38049 ft 465 kts 320°
2026-05-05 03:24 35.68695 -121.00704 38049 ft 451 kts 320°
2026-05-05 03:24 35.71175 -121.03011 38050 ft 443 kts 320°
2026-05-05 03:25 35.76066 -121.07581 38050 ft 440 kts 321°
2026-05-05 03:25 35.80942 -121.12140 37905 ft 442 kts 321°
2026-05-05 03:26 35.83416 -121.14458 37087 ft 449 kts 321°
2026-05-05 03:26 35.85885 -121.16769 36743 ft 443 kts 321°
2026-05-05 03:26 35.88331 -121.19059 36302 ft 441 kts 321°
2026-05-05 03:26 35.90765 -121.21343 35802 ft 440 kts 322°
2026-05-05 03:27 35.93210 -121.23637 34919 ft 445 kts 323°
2026-05-05 03:27 35.95682 -121.25955 33916 ft 445 kts 324°
2026-05-05 03:27 35.98091 -121.28217 33598 ft 425 kts 324°
2026-05-05 03:27 36.00424 -121.30416 33121 ft 421 kts 324°
2026-05-05 03:28 36.02744 -121.32604 32658 ft 418 kts 324°
2026-05-05 03:28 36.05047 -121.34777 32192 ft 415 kts 324°
2026-05-05 03:28 36.07338 -121.36853 31743 ft 412 kts 329°
2026-05-05 03:28 36.09754 -121.38734 31304 ft 409 kts 331°
2026-05-05 03:29 36.12154 -121.40602 30863 ft 407 kts 332°
2026-05-05 03:29 36.14540 -121.42464 30443 ft 404 kts 332°
2026-05-05 03:29 36.16913 -121.44317 30004 ft 403 kts 332°
2026-05-05 03:29 36.19274 -121.46166 29569 ft 400 kts 332°
2026-05-05 03:30 36.21612 -121.48002 29168 ft 396 kts 332°
2026-05-05 03:30 36.23933 -121.49824 28779 ft 393 kts 332°
2026-05-05 03:30 36.26235 -121.51626 28395 ft 390 kts 332°
2026-05-05 03:30 36.28527 -121.53415 28016 ft 388 kts 332°
2026-05-05 03:31 36.30805 -121.55191 27621 ft 387 kts 331°
2026-05-05 03:31 36.33077 -121.56964 27223 ft 385 kts 331°
2026-05-05 03:31 36.35336 -121.58738 26819 ft 384 kts 331°
2026-05-05 03:31 36.37584 -121.60510 26410 ft 382 kts 330°
2026-05-05 03:32 36.39822 -121.62277 26001 ft 381 kts 330°
2026-05-05 03:32 36.42056 -121.64038 25570 ft 379 kts 332°
2026-05-05 03:32 36.44281 -121.65790 25152 ft 378 kts 332°
2026-05-05 03:32 36.46499 -121.67532 24717 ft 377 kts 331°
2026-05-05 03:33 36.48532 -121.69607 24330 ft 381 kts 313°
2026-05-05 03:33 36.49864 -121.72413 24164 ft 377 kts 292°
2026-05-05 03:33 36.50511 -121.75563 23841 ft 375 kts 283°
2026-05-05 03:33 36.51010 -121.78727 23448 ft 372 kts 282°
2026-05-05 03:34 36.51490 -121.81878 23094 ft 368 kts 282°
2026-05-05 03:34 36.51952 -121.84981 22746 ft 363 kts 282°
2026-05-05 03:34 36.52528 -121.88007 22363 ft 357 kts 294°
2026-05-05 03:34 36.53729 -121.90661 22077 ft 350 kts 312°
2026-05-05 03:35 36.55492 -121.92680 21785 ft 343 kts 332°
2026-05-05 03:35 36.57630 -121.93900 21533 ft 335 kts 350°
2026-05-05 03:35 36.59884 -121.94243 21305 ft 320 kts
2026-05-05 03:35 36.62035 -121.93789 20991 ft 310 kts 20°
2026-05-05 03:36 36.64092 -121.93040 20663 ft 306 kts 19°
2026-05-05 03:36 36.66128 -121.92304 20346 ft 303 kts 19°
2026-05-05 03:36 36.68149 -121.91577 20022 ft 301 kts 19°
2026-05-05 03:36 36.70176 -121.90847 19709 ft 309 kts 19°
2026-05-05 03:37 36.72266 -121.90114 19379 ft 314 kts 15°
2026-05-05 03:37 36.74443 -121.89801 19047 ft 318 kts
2026-05-05 03:37 36.76652 -121.90095 18581 ft 322 kts 351°
2026-05-05 03:37 36.78842 -121.90723 18119 ft 323 kts 351°
2026-05-05 03:38 36.81029 -121.91343 17652 ft 322 kts 351°
2026-05-05 03:38 36.83201 -121.91952 17348 ft 316 kts 351°
2026-05-05 03:38 36.85328 -121.92545 16804 ft 318 kts 351°
2026-05-05 03:38 36.87462 -121.93140 16578 ft 311 kts 351°
2026-05-05 03:39 36.89560 -121.93724 16243 ft 307 kts 351°
2026-05-05 03:39 36.91635 -121.94306 15889 ft 305 kts 351°
2026-05-05 03:39 36.93701 -121.94885 15525 ft 303 kts 351°
2026-05-05 03:39 36.95747 -121.95481 15172 ft 302 kts 349°
2026-05-05 03:40 36.97761 -121.96195 14888 ft 298 kts 347°
2026-05-05 03:40 36.99708 -121.96963 14763 ft 289 kts 346°
2026-05-05 03:40 37.01590 -121.97730 14639 ft 280 kts 346°
2026-05-05 03:40 37.03414 -121.98474 14520 ft 271 kts 346°
2026-05-05 03:41 37.05182 -121.99186 14403 ft 263 kts 346°
2026-05-05 03:41 37.06895 -121.99868 14279 ft 255 kts 346°
2026-05-05 03:41 37.08567 -122.00529 14096 ft 250 kts 347°
2026-05-05 03:41 37.10219 -122.01180 13844 ft 248 kts 346°
2026-05-05 03:42 37.11862 -122.01821 13541 ft 247 kts 346°
2026-05-05 03:42 37.13499 -122.02454 13236 ft 246 kts 346°
2026-05-05 03:42 37.15128 -122.03083 12894 ft 243 kts 346°
2026-05-05 03:42 37.16745 -122.03713 12374 ft 243 kts 345°
2026-05-05 03:43 37.18373 -122.04350 11732 ft 248 kts 345°
2026-05-05 03:43 37.20021 -122.04998 11253 ft 246 kts 345°
2026-05-05 03:43 37.21630 -122.05632 10870 ft 240 kts 344°
2026-05-05 03:43 37.23218 -122.06257 10450 ft 238 kts 344°
2026-05-05 03:44 37.24792 -122.06873 10017 ft 237 kts 344°
2026-05-05 03:44 37.26359 -122.07487 9555 ft 235 kts 344°
2026-05-05 03:44 37.27915 -122.08098 9091 ft 233 kts 344°
2026-05-05 03:44 37.29457 -122.08705 8876 ft 233 kts 345°
2026-05-05 03:45 37.31002 -122.09315 8363 ft 234 kts 344°
2026-05-05 03:45 37.32556 -122.09929 8039 ft 235 kts 343°
2026-05-05 03:45 37.34125 -122.10547 8013 ft 238 kts 343°
2026-05-05 03:45 37.35712 -122.11169 8017 ft 239 kts 343°
2026-05-05 03:46 37.37320 -122.11639 8013 ft 237 kts 357°
2026-05-05 03:46 37.38968 -122.11680 8020 ft 237 kts
2026-05-05 03:46 37.40618 -122.11638 8019 ft 237 kts
2026-05-05 03:46 37.42262 -122.11591 8009 ft 237 kts
2026-05-05 03:47 37.43911 -122.11537 7977 ft 235 kts
2026-05-05 03:47 37.45543 -122.11487 7672 ft 235 kts
2026-05-05 03:47 37.47183 -122.11432 7358 ft 236 kts
2026-05-05 03:47 37.48826 -122.11375 6904 ft 236 kts
2026-05-05 03:48 37.50475 -122.11311 6409 ft 238 kts
2026-05-05 03:48 37.52135 -122.11240 5883 ft 239 kts
2026-05-05 03:48 37.53780 -122.11149 5471 ft 234 kts
2026-05-05 03:48 37.55371 -122.11373 5024 ft 229 kts 335°
2026-05-05 03:49 37.56591 -122.12570 4547 ft 221 kts 301°
2026-05-05 03:49 37.57001 -122.14363 4073 ft 214 kts 267°
2026-05-05 03:49 37.56920 -122.16179 3898 ft 200 kts 267°
2026-05-05 03:49 37.56873 -122.17853 3787 ft 182 kts 268°
2026-05-05 03:50 37.56832 -122.19368 3671 ft 164 kts 268°
2026-05-05 03:50 37.56792 -122.20723 3474 ft 146 kts 268°
2026-05-05 03:50 37.56768 -122.21984 2976 ft 144 kts 272°
2026-05-05 03:50 37.56833 -122.23248 2403 ft 145 kts 277°
2026-05-05 03:51 37.57008 -122.24483 1998 ft 137 kts 283°
2026-05-05 03:51 37.57286 -122.25583 1840 ft 129 kts 290°
2026-05-05 03:51 37.57625 -122.26607 1679 ft 125 kts 294°
2026-05-05 03:51 37.57993 -122.27594 1517 ft 124 kts 295°
2026-05-05 03:52 37.58379 -122.28570 1354 ft 124 kts 296°
2026-05-05 03:52 37.58773 -122.29539 1179 ft 124 kts 297°
2026-05-05 03:52 37.59172 -122.30505 1011 ft 124 kts 296°
2026-05-05 03:52 37.59577 -122.31476 829 ft 125 kts 297°
2026-05-05 03:53 37.59982 -122.32444 658 ft 124 kts 297°
2026-05-05 03:53 37.60384 -122.33403 483 ft 123 kts 297°
2026-05-05 03:53 37.60784 -122.34356 326 ft 123 kts 297°
2026-05-05 03:53 37.61184 -122.35306 149 ft 122 kts 298°
2026-05-05 03:54 37.61582 -122.36248 34 ft 116 kts 298°
2026-05-05 03:54 37.61905 -122.37027 23 ft 85 kts 297°
2026-05-05 03:54 37.62142 -122.37590 22 ft 59 kts 296°
2026-05-05 03:54 37.62232 -122.37960 22 ft 27 kts 267°
2026-05-05 03:55 37.62226 -122.38104 22 ft 7 kts 265°
2026-05-05 03:55 37.62217 -122.38166 22 ft 11 kts 257°
2026-05-05 03:55 37.62135 -122.38232 24 ft 12 kts 206°
2026-05-05 03:55 37.62107 -122.38249 22 ft 0 kts 207°
2026-05-05 03:56 37.62106 -122.38250 22 ft 1 kts 207°
2026-05-05 03:56 37.62098 -122.38259 22 ft 7 kts 223°
2026-05-05 03:56 37.62107 -122.38372 23 ft 16 kts 299°
2026-05-05 03:56 37.62165 -122.38504 23 ft 19 kts 298°
2026-05-05 03:57 37.62231 -122.38659 22 ft 21 kts 297°
2026-05-05 03:57 37.62301 -122.38826 22 ft 22 kts 298°
2026-05-05 03:57 37.62318 -122.38966 22 ft 12 kts 222°
2026-05-05 03:57 37.62255 -122.39019 22 ft 12 kts 232°
2026-05-05 03:58 37.62197 -122.39070 22 ft 9 kts 162°
2026-05-05 03:58 37.62148 -122.39050 22 ft 2 kts 163°
2026-05-05 03:58 37.62142 -122.39048 22 ft 0 kts 163°